Temperature
18 18 18 18 18 17 17 17 17 17 17 16 16 16 16 16 15 15 15 15 15 15 15 15 14 14 14 14 14 14 14 14 14 14 14 14 14 14 14 14 14 14 14
18 18 18 18 18 17 17 17 17 17 17 16 16 16 16 16 16 15 15 15 15 15 15 15 14 14 14 14 14 14 14 14 14 14 14 14 14 14 14 14 14 14 14
19 18 18 18 18 18 18 17 17 17 17 16 16 16 16 16 16 16 15 15 15 15 15 15 15 14 14 14 14 14 14 14 14 14 14 14 14 14 14 14 14 14 13
19 19 18 18 18 18 18 17 17 17 17 16 16 16 16 16 16 16 15 15 15 15 15 15 15 14 14 14 14 14 14 14 14 14 14 14 14 14 14 14 14 14 14
19 19 19 19 18 18 18 17 17 17 17 17 16 16 16 16 16 16 15 15 15 15 15 15 15 15 14 14 14 14 14 14 14 14 14 14 14 14 14 14 13 13 13
19 19 19 19 18 18 18 17 17 17 17 16 16 16 16 16 16 16 15 15 15 15 15 15 15 14 14 14 14 14 14 14 14 14 14 14 14 14 14 13 13 13 13
19 19 19 18 18 18 18 17 17 17 17 16 16 16 16 16 16 15 15 15 15 15 15 15 15 15 14 14 14 14 14 14 13 13 13 14 14 14 13 13 13 13 13
18 18 18 18 18 18 17 17 17 17 17 16 16 16 16 16 15 15 15 15 15 15 15 15 14 15 14 14 14 14 14 14 13 13 13 13 13 13 13 13 12 12 12
18 18 17 17 17 17 17 17 17 16 16 16 16 16 16 15 15 15 14 14 14 14 14 14 14 14 14 14 13 13 13 14 13 13 13 13 13 13 12 12 12 12 12
17 17 16 16 16 16 16 16 16 16 16 16 15 15 15 15 15 14 14 14 14 14 14 14 14 14 14 13 13 13 13 13 13 13 13 13 13 13 12 12 12 12 11
16 16 16 16 16 16 15 15 15 15 15 15 15 15 14 14 14 14 13 13 13 13 13 13 13 13 13 13 12 12 12 12 12 12 12 12 12 12 12 12 12 12 11
15 15 15 15 15 15 15 15 14 14 14 14 14 14 13 13 13 13 13 13 13 13 13 13 13 12 12 12 12 12 12 12 11 11 11 12 12 12 12 12 12 11 11
14 14 14 14 14 14 14 14 14 13 13 13 13 13 13 13 13 12 12 12 12 12 12 12 12 12 12 11 11 11 11 11 11 11 11 11 11 11 11 11 11 11 11
13 13 13 13 13 13 13 13 13 13 13 13 13 12 12 12 12 12 12 12 11 11 11 11 11 11 11 11 11 11 11 10 10 10 10 10 10 11 11 11 11 11 11
12 12 12 12 12 12 12 12 12 12 12 12 12 12 11 11 11 11 11 11 11 11 10 10 10 10 10 10 10 10 10 10 10 10 10 10 10 10 10 10 10 10 10
12 12 11 11 12 12 12 12 11 11 11 11 11 11 11 11 11 11 10 10 10 10 10 10 10 10 9 9 9 9 9 9 9 9 9 9 9 9 9 9 9 9 9
11 11 11 11 11 11 11 11 11 11 11 11 11 11 11 11 11 10 10 10 10 10 9 9 9 9 9 9 9 9 9 9 9 9 9 9 9 8 8 8 8 8 9
10 10 10 10 10 10 11 11 10 10 10 10 10 10 10 10 10 10 10 10 9 9 9 9 9 8 8 8 8 8 8 8 8 8 8 8 8 8 8 8 8 8 8
10 10 10 10 10 10 10 10 10 10 10 10 10 10 10 10 10 9 9 9 9 9 9 8 8 8 8 8 7 7 7 7 7 7 7 7 7 7 7 7 7 7 7
9 9 9 9 9 9 9 9 9 9 9 9 9 9 9 9 9 9 9 8 8 8 8 8 8 7 7 7 7 7 7 7 7 7 7 7 7 7 7 7 7 7 7
9 9 9 9 9 9 9 8 8 8 8 8 8 8 8 8 8 7 7 7 7 7 7 7 7 7 7 6 6 6 6 6 6 6 6 6 6 6 6 6 6 6 6
9 8 8 8 8 8 8 8 8 7 7 7 7 7 7 7 7 6 6 6 6 6 6 6 6 6 6 6 5 5 5 5 5 5 5 5 5 5 5 6 6 6 6
8 8 8 7 7 7 7 7 7 6 6 6 6 6 6 6 5 5 5 5 5 5 5 5 5 5 5 5 5 5 5 5 5 5 5 5 5 5 5 5 5 5 5
7 7 7 6 6 6 6 6 6 5 5 5 5 5 5 4 4 4 4 4 4 4 4 5 5 5 5 4 4 4 4 4 4 4 4 4 4 4 4 5 5 5 5
6 6 6 6 5 5 5 5 5 4 4 4 4 4 4 4 3 3 3 3 4 4 4 4 4 4 4 4 4 4 4 4 4 4 4 4 4 4 4 4 5 5 5
5 5 5 5 4 4 4 4 4 4 3 3 3 3 3 3 3 3 3 3 3 3 3 3 3 3 3 3 3 4 4 4 4 4 4 4 4 4 4 4 4 4 5
Wind_Speed
11 10 10 9 9 8 8 9 8 7 8 9 10 9 8 8 7 7 6 6 6 5 4 5 5 3 2 2 2 2 2 3 3 4 3 3 2 3 5 8 11 11 12
11 10 10 9 9 9 9 9 8 9 9 10 10 10 10 9 9 9 8 7 7 7 7 6 6 4 5 3 3 3 3 3 4 4 3 3 4 4 4 5 7 9 11
11 11 10 10 10 10 9 9 8 9 9 9 10 11 10 10 10 10 9 8 8 8 8 8 7 7 6 5 5 4 4 3 4 4 4 3 4 3 3 4 4 5 9
10 11 12 11 11 10 9 9 9 9 9 9 10 10 10 9 10 10 9 9 8 8 8 8 8 8 8 8 6 6 5 4 4 4 5 4 4 4 2 4 4 4 5
11 12 12 10 9 8 8 8 9 9 10 9 9 9 9 9 9 10 10 10 9 8 8 8 9 10 12 10 7 7 7 5 5 5 5 4 4 4 4 4 5 5 5
11 11 9 8 8 8 8 8 8 9 8 9 9 9 9 8 10 13 10 8 8 9 9 8 8 9 12 14 14 13 11 9 8 6 6 7 8 6 5 5 4 4 5
8 8 7 8 9 9 10 9 9 10 9 8 9 8 8 8 10 11 12 8 8 8 8 8 8 8 9 7 10 13 13 15 14 10 9 10 9 8 6 6 7 7 8
5 4 4 5 6 6 6 7 7 6 7 8 8 8 8 9 11 12 13 9 8 9 8 8 8 7 6 7 7 7 8 10 12 11 11 12 11 10 9 9 9 8 7
4 3 3 4 4 3 4 5 5 5 6 7 7 8 8 8 10 11 10 5 6 7 6 6 7 7 9 9 7 8 9 9 12 16 17 17 19 19 12 5 6 6 8
4 3 3 3 3 3 3 3 3 3 5 5 5 5 6 6 8 11 10 5 5 5 5 5 8 9 9 8 7 7 9 10 8 8 9 13 14 15 17 12 10 10 8
4 4 4 3 2 2 2 2 2 2 2 2 3 3 4 4 6 9 10 6 6 5 5 5 5 7 8 8 8 7 11 10 7 8 8 8 8 9 9 10 11 11 11
6 6 6 4 3 2 2 1 1 2 2 2 1 1 1 1 2 4 7 8 6 5 6 5 5 7 9 10 9 11 14 11 6 7 8 9 9 10 10 10 11 13 14
7 6 5 5 5 4 3 2 2 1 1 1 2 1 0 1 1 0 2 4 6 5 5 7 8 9 10 9 11 13 10 7 6 7 9 10 10 10 9 8 9 10 10
7 5 5 5 5 4 3 3 2 1 1 2 1 1 0 0 0 0 0 1 3 4 4 6 8 9 8 9 9 8 6 6 7 8 8 9 7 7 7 7 8 7 7
7 6 5 4 4 4 3 2 2 0 2 2 2 2 2 1 3 3 1 0 1 1 2 2 3 3 4 5 5 6 6 5 6 6 7 8 7 7 8 7 7 6 7
7 6 5 4 3 3 3 3 4 2 1 1 2 3 2 3 4 3 2 2 2 2 1 2 4 5 5 6 6 6 5 6 6 6 7 7 7 8 8 7 6 7 9
6 5 4 3 3 3 3 2 3 5 4 2 2 3 4 5 5 4 3 3 3 2 1 3 4 5 6 6 6 6 6 6 6 6 6 7 7 7 7 7 7 7 8
6 5 5 3 3 3 3 2 1 2 3 4 4 4 5 6 5 4 2 0 2 1 3 4 5 5 5 5 6 6 6 6 5 6 6 6 6 7 7 7 7 8 8
5 4 4 4 3 3 3 3 3 3 3 3 3 5 6 4 3 3 1 1 3 4 4 5 5 5 5 5 6 5 5 5 6 5 5 6 6 6 7 8 8 10 9
4 6 5 3 4 4 4 4 3 3 3 3 3 4 4 3 3 3 2 2 3 5 5 5 5 5 5 5 6 5 5 5 6 5 6 6 6 6 8 9 8 8 8
4 5 7 5 4 3 3 3 3 3 3 3 3 4 5 2 3 4 4 3 3 4 5 5 5 5 5 5 5 5 6 5 5 5 6 6 7 7 7 7 8 8 8
4 4 3 3 3 4 4 4 4 3 3 4 4 4 7 4 4 4 4 5 5 4 4 5 5 5 5 5 5 6 6 6 6 6 7 7 7 7 8 8 8 8 8
5 4 4 4 3 5 5 4 4 4 4 4 4 4 4 4 5 5 5 5 5 5 5 5 5 5 5 5 4 5 6 6 6 7 7 8 8 8 8 9 10 11 10
5 5 5 4 4 4 4 4 4 4 4 4 4 4 4 5 5 6 6 6 6 6 6 5 5 7 8 6 5 6 6 7 7 7 9 9 9 9 9 9 10 11 11
4 4 4 4 4 4 4 4 4 5 5 5 5 5 5 5 6 6 6 6 7 7 8 7 5 6 8 9 8 8 10 11 10 9 8 8 10 11 11 11 10 11 11
4 4 4 3 4 4 4 4 4 5 5 5 5 5 5 5 6 6 6 7 7 7 7 7 8 10 10 10 11 12 12 12 12 12 9 8 9 10 10 10 12 11 12
Wind_Direction
185 185 184 185 185 181 186 191 191 190 185 182 183 181 181 182 179 177 186 184 187 198 196 191 207 203 198 196 161 147 157 156 200 268 270 273 258 265 269 253 253 254 259
186 184 187 185 184 186 192 195 189 187 185 184 181 182 188 189 186 185 194 192 194 201 204 198 211 208 207 209 195 197 198 190 188 241 275 279 267 262 259 262 263 259 258
184 186 191 191 191 196 198 195 189 186 185 185 182 187 193 193 193 196 197 198 201 205 205 203 209 201 211 213 209 212 217 212 194 213 254 262 270 273 276 277 272 270 270
186 190 197 200 201 202 199 196 194 190 188 191 192 194 195 196 198 201 201 204 206 208 209 210 210 204 210 211 214 215 214 218 218 226 248 261 265 274 262 267 282 272 270
188 197 203 203 202 201 200 202 199 196 197 195 196 200 200 199 204 202 205 208 209 215 217 216 217 215 214 211 213 212 208 216 223 230 245 256 259 262 254 248 257 271 273
191 199 199 195 198 202 204 206 204 203 201 195 199 200 202 211 212 206 203 208 209 215 223 227 230 229 230 228 227 218 206 211 219 225 237 241 251 240 239 238 243 260 276
189 194 197 195 200 207 208 205 210 210 203 199 201 198 201 207 201 204 208 204 209 216 220 224 236 235 230 233 240 240 232 228 220 218 231 241 245 236 229 242 237 234 245
169 175 176 181 190 194 195 203 208 206 200 203 206 205 205 212 208 209 210 206 213 219 217 218 224 236 233 229 238 247 246 243 237 233 236 245 244 238 226 234 243 250 256
137 157 167 161 165 183 204 210 207 200 202 207 204 208 210 218 215 216 212 210 223 229 228 228 226 234 242 237 237 250 261 264 257 245 241 246 249 249 239 234 240 240 259
96 120 127 134 154 181 207 211 203 190 200 201 206 210 210 217 217 215 209 212 228 239 240 240 237 239 247 243 234 241 258 266 269 271 259 258 256 257 249 234 235 242 249
80 81 83 95 128 164 187 194 172 167 173 195 206 217 219 222 226 219 207 208 224 236 243 246 242 240 245 247 239 237 250 261 269 264 264 263 258 253 249 239 231 232 241
63 65 62 58 58 67 81 87 126 152 161 189 192 206 208 203 202 215 212 215 222 231 247 250 245 254 259 261 256 253 260 266 261 262 264 265 263 261 256 246 240 237 238
61 58 57 55 50 54 68 64 52 98 157 172 151 144 99 62 65 126 207 224 237 239 255 265 275 278 281 274 266 268 271 260 254 258 262 263 261 261 261 260 257 250 248
60 47 44 49 41 37 48 61 75 75 96 103 119 141 144 1 341 1 295 255 257 258 272 287 293 289 279 270 276 278 264 252 251 258 264 267 269 267 264 262 265 264 263
52 45 40 39 42 38 32 35 55 72 148 144 165 170 162 199 247 219 194 259 292 274 302 305 300 299 297 292 288 283 277 273 265 263 267 273 274 271 269 263 257 260 260
46 37 35 32 31 35 34 19 16 16 17 101 185 186 208 215 220 212 218 233 236 213 177 278 282 281 279 280 281 282 277 273 270 267 268 269 270 271 273 270 260 257 262
42 32 29 28 26 20 20 23 359 351 357 344 293 262 245 250 248 247 252 270 271 198 218 266 271 275 276 276 275 275 279 278 275 273 273 274 273 272 270 270 268 265 266
32 24 21 13 12 16 19 10 1 349 341 337 321 302 283 267 261 259 250 314 310 267 246 260 266 269 272 275 275 277 282 288 285 283 281 281 280 279 279 277 273 269 271
26 14 10 8 9 10 12 17 11 5 356 336 337 339 333 317 313 297 202 215 261 273 268 264 266 270 273 276 276 277 280 285 288 289 289 287 284 281 281 279 278 276 273
2 4 17 12 2 2 7 13 15 9 7 4 354 339 346 13 355 329 293 265 270 276 278 274 274 277 279 280 279 279 280 282 286 286 288 288 284 280 280 280 279 280 278
2 357 10 16 9 10 11 10 9 12 11 4 346 345 356 348 319 314 313 301 287 286 287 285 282 284 284 283 282 281 281 282 283 284 288 290 289 288 285 282 280 279 280
9 8 15 19 21 23 17 14 13 11 5 360 344 349 2 5 346 333 323 313 304 294 289 286 284 284 284 284 284 284 281 282 284 284 285 287 287 285 285 285 284 281 279
17 20 17 18 22 21 22 20 16 8 359 352 348 351 357 353 343 335 329 323 318 311 306 302 296 294 288 284 279 278 281 283 284 285 287 285 284 284 284 284 285 287 284
25 26 26 22 21 18 14 11 9 8 5 357 352 349 345 339 333 331 331 328 326 320 314 309 301 299 300 301 300 296 292 294 295 288 284 282 282 282 282 282 284 284 285
33 35 29 23 19 14 13 14 10 4 359 353 348 344 338 335 331 330 329 326 324 321 323 324 318 314 311 311 311 310 310 306 298 293 287 280 278 278 279 281 284 287 285
34 30 26 22 19 16 17 12 3 356 350 345 342 339 337 335 332 331 331 330 330 327 325 326 325 324 322 321 318 317 312 305 299 292 284 277 276 277 281 282 285 285 285
Height
1510 1513 1516 1519 1522 1525 1527 1530 1532 1534 1536 1538 1540 1541 1542 1544 1545 1546 1547 1548 1549 1550 1551 1552 1553 1554 1555 1555 1556 1556 1556 1557 1556 1556 1556 1556 1555 1555 1554 1553 1553 1552 1551
1507 1510 1513 1516 1519 1522 1524 1527 1529 1531 1533 1535 1536 1538 1539 1540 1541 1543 1544 1545 1546 1547 1548 1549 1550 1551 1552 1553 1553 1554 1554 1554 1554 1553 1553 1553 1552 1552 1551 1550 1549 1548 1547
1505 1508 1510 1513 1515 1518 1521 1523 1526 1528 1530 1531 1532 1534 1535 1536 1538 1539 1541 1542 1543 1544 1545 1546 1547 1548 1549 1550 1550 1551 1551 1551 1551 1550 1549 1549 1549 1548 1547 1546 1545 1544 1544
1502 1505 1507 1510 1512 1515 1518 1520 1522 1524 1526 1528 1529 1530 1531 1533 1534 1536 1537 1538 1539 1541 1542 1543 1544 1545 1545 1546 1546 1547 1547 1547 1547 1546 1545 1545 1544 1544 1543 1542 1541 1540 1539
1499 1501 1504 1507 1510 1513 1515 1517 1520 1521 1523 1524 1526 1527 1528 1529 1530 1532 1533 1535 1536 1537 1538 1539 1540 1541 1542 1542 1543 1543 1543 1543 1543 1542 1541 1540 1539 1539 1538 1537 1536 1535 1534
1495 1498 1500 1504 1506 1509 1511 1513 1515 1517 1519 1520 1522 1523 1524 1524 1526 1527 1529 1530 1531 1532 1534 1535 1536 1536 1537 1538 1538 1538 1538 1538 1537 1537 1536 1535 1534 1534 1533 1532 1531 1529 1527
1492 1494 1497 1500 1502 1504 1507 1509 1511 1512 1513 1515 1516 1517 1518 1520 1521 1522 1524 1525 1526 1527 1528 1530 1530 1531 1532 1532 1532 1532 1532 1532 1532 1532 1530 1529 1528 1528 1528 1526 1525 1523 1521
1490 1493 1495 1497 1499 1501 1503 1504 1506 1507 1508 1510 1510 1512 1513 1514 1516 1517 1519 1519 1520 1521 1523 1524 1524 1525 1526 1526 1526 1526 1525 1525 1526 1525 1524 1523 1522 1522 1521 1520 1518 1516 1514
1489 1492 1493 1494 1496 1497 1498 1499 1501 1502 1503 1504 1505 1507 1508 1509 1511 1512 1513 1514 1514 1515 1516 1518 1519 1519 1520 1520 1520 1519 1518 1518 1518 1517 1516 1515 1515 1514 1514 1512 1510 1508 1505
1487 1489 1491 1492 1493 1494 1495 1495 1496 1497 1499 1500 1501 1502 1503 1504 1506 1507 1508 1509 1509 1509 1510 1512 1512 1513 1513 1513 1512 1511 1510 1509 1509 1509 1508 1507 1506 1505 1505 1503 1501 1499 1496
1486 1487 1488 1489 1490 1491 1492 1493 1493 1493 1495 1496 1496 1497 1498 1499 1501 1503 1503 1504 1504 1504 1504 1505 1506 1506 1506 1505 1505 1504 1502 1502 1500 1499 1498 1497 1496 1495 1494 1493 1492 1490 1488
1486 1485 1486 1487 1488 1489 1489 1490 1490 1491 1492 1492 1493 1493 1494 1495 1496 1497 1497 1498 1499 1499 1499 1499 1499 1499 1498 1497 1497 1496 1495 1494 1492 1490 1489 1487 1486 1485 1484 1483 1482 1480 1479
1486 1486 1486 1487 1487 1488 1488 1488 1488 1489 1489 1490 1490 1490 1490 1490 1491 1492 1492 1493 1493 1493 1493 1493 1492 1492 1491 1489 1489 1488 1487 1486 1483 1482 1479 1478 1477 1476 1475 1473 1472 1470 1469
1486 1487 1487 1487 1487 1487 1488 1488 1488 1488 1487 1487 1487 1487 1488 1488 1488 1488 1488 1488 1488 1488 1487 1486 1486 1485 1484 1482 1481 1480 1479 1478 1476 1474 1471 1470 1468 1467 1465 1464 1462 1461 1458
1487 1487 1488 1488 1488 1487 1487 1487 1487 1487 1487 1486 1486 1486 1485 1485 1485 1485 1485 1484 1484 1483 1482 1481 1480 1478 1477 1475 1474 1473 1472 1470 1468 1466 1464 1462 1460 1458 1456 1455 1454 1452 1450
1489 1489 1489 1489 1488 1488 1487 1487 1486 1486 1485 1485 1484 1484 1483 1484 1483 1482 1481 1481 1480 1479 1478 1476 1475 1473 1471 1469 1467 1466 1465 1463 1461 1459 1457 1455 1452 1450 1448 1447 1445 1443 1440
1491 1490 1490 1489 1488 1488 1487 1486 1485 1485 1484 1484 1483 1482 1481 1481 1480 1479 1478 1478 1477 1475 1473 1471 1470 1468 1466 1464 1462 1460 1458 1457 1455 1452 1450 1448 1445 1443 1440 1438 1436 1433 1431
1492 1491 1490 1489 1488 1487 1486 1485 1484 1483 1482 1481 1481 1480 1479 1478 1477 1476 1475 1474 1472 1471 1469 1466 1465 1463 1461 1459 1457 1455 1452 1450 1448 1446 1443 1441 1438 1436 1433 1430 1427 1425 1422
1492 1491 1490 1489 1488 1486 1485 1484 1483 1482 1480 1479 1478 1477 1476 1475 1473 1472 1470 1469 1467 1465 1463 1461 1459 1457 1455 1453 1451 1449 1446 1444 1441 1439 1436 1434 1431 1428 1425 1422 1419 1416 1413
1492 1491 1489 1488 1486 1485 1484 1482 1481 1480 1478 1477 1475 1474 1472 1471 1469 1468 1466 1464 1462 1460 1458 1455 1453 1451 1449 1447 1445 1442 1440 1437 1435 1432 1429 1426 1423 1420 1417 1414 1411 1408 1405
1491 1490 1488 1487 1485 1484 1482 1481 1479 1477 1476 1474 1473 1471 1469 1467 1465 1463 1461 1459 1457 1454 1452 1450 1448 1446 1443 1441 1438 1435 1433 1430 1428 1425 1421 1419 1416 1412 1409 1406 1403 1400 1397
1490 1489 1487 1485 1483 1482 1480 1479 1477 1475 1473 1471 1469 1467 1465 1463 1461 1458 1456 1454 1452 1449 1447 1444 1442 1439 1437 1434 1431 1429 1426 1423 1420 1417 1414 1411 1408 1405 1402 1399 1396 1393 1390
1489 1487 1485 1483 1481 1480 1478 1476 1474 1472 1470 1468 1466 1463 1461 1459 1456 1454 1451 1449 1446 1443 1441 1438 1436 1433 1431 1428 1425 1422 1419 1416 1413 1410 1406 1403 1400 1397 1395 1391 1388 1385 1382
1487 1485 1483 1481 1479 1477 1475 1473 1471 1469 1467 1465 1462 1459 1457 1454 1452 1449 1446 1444 1440 1437 1435 1432 1429 1426 1424 1421 1418 1415 1412 1409 1405 1402 1399 1396 1393 1390 1387 1384 1381 1378 1375
1485 1483 1481 1479 1477 1475 1473 1471 1468 1466 1464 1461 1458 1456 1453 1450 1447 1445 1442 1439 1435 1432 1429 1426 1423 1420 1417 1414 1411 1408 1405 1402 1399 1396 1392 1389 1386 1383 1381 1378 1374 1372 1369
1483 1481 1479 1477 1475 1473 1471 1468 1466 1463 1460 1458 1455 1452 1449 1446 1443 1440 1437 1434 1430 1427 1424 1420 1417 1414 1411 1408 1404 1401 1398 1395 1392 1389 1386 1383 1380 1377 1374 1371 1368 1365 1363